Location: Altoona
(40.5167°N, 78.4000°W)
Time: 00:53:31
(UTC-04:00)

Cosmos 1939 Rocket - Pass Details

Date: 21 August 2017
Orbit: 533 x 586 km, 97.5° (Epoch: 23 September)

Event Time Altitude Azimuth Distance (km) Brightness Sun altitude
Exits shadow 21:54:16 12° 201° (SSW) 1,711 5.2 -19.9°
Maximum altitude 21:57:30 32° 263° (W) 961 4.4 -20.4°
Drops below altitude 10° 22:01:04 10° 327° (NNW) 1,825 6.5 -20.9°
Sets 22:03:22 0° 338° (NNW) 2,715 7.4 -21.3°
